| time (UTC) | temp F | wind direction | speed knots | gust knots | rain 1hr in | rain 24hr in | rain mn in | humidity % | barometer mb |
| 20260505224008 | 83 | 200 | 1.7 | 10.4 | 0.00 | 0.00 | 0.00 | 73 | 1006.8 |
| 20260505223512 | 84 | 0 | 1.7 | 10.4 | 0.00 | 0.00 | 0.00 | 73 | 1006.7 |
| 20260505223027 | 84 | 248 | 0.0 | 9.6 | 0.00 | 0.00 | 0.00 | 73 | 1006.6 |
| 20260505222508 | 84 | 286 | 3.5 | 9.6 | 0.00 | 0.00 | 0.00 | 73 | 1006.7 |
| 20260505222009 | 84 | 171 | 0.0 | 9.6 | 0.00 | 0.00 | 0.00 | 74 | 1006.9 |
| 20260505221526 | 84 | 0 | 0.9 | 11.3 | 0.00 | 0.00 | 0.00 | 73 | 1006.8 |
| 20260505221012 | 84 | 171 | 2.6 | 11.3 | 0.00 | 0.00 | 0.00 | 73 | 1006.8 |
| 20260505220512 | 84 | 189 | 1.7 | 11.3 | 0.00 | 0.00 | 0.00 | 74 | 1006.8 |
| 20260505220032 | 84 | 0 | 0.9 | 9.6 | 0.00 | 0.00 | 0.00 | 74 | 1006.9 |
| 20260505215513 | 83 | 153 | 1.7 | 9.6 | 0.00 | 0.00 | 0.00 | 73 | 1007.0 |
| 20260505215012 | 83 | 155 | 1.7 | 8.7 | 0.00 | 0.00 | 0.00 | 73 | 1007.0 |
| 20260505214534 | 83 | 201 | 2.6 | 9.6 | 0.00 | 0.00 | 0.00 | 73 | 1007.1 |
| 20260505214013 | 84 | 198 | 0.9 | 9.6 | 0.00 | 0.00 | 0.00 | 73 | 1007.3 |
| 20260505213517 | 84 | 0 | 1.7 | 7.0 | 0.00 | 0.00 | 0.00 | 73 | 1007.4 |
| 20260505213033 | 84 | 91 | 1.7 | 7.0 | 0.00 | 0.00 | 0.00 | 73 | 1007.5 |
| 20260505212513 | 84 | 138 | 0.9 | 8.7 | 0.00 | 0.00 | 0.00 | 73 | 1007.5 |
| 20260505212012 | 84 | 256 | 1.7 | 8.7 | 0.00 | 0.00 | 0.00 | 72 | 1007.6 |
| 20260505211528 | 84 | 60 | 1.7 | 8.7 | 0.00 | 0.00 | 0.00 | 74 | 1007.6 |
| 20260505211009 | 84 | 0 | 0.0 | 8.7 | 0.00 | 0.00 | 0.00 | 73 | 1007.6 |
| 20260505210515 | 84 | 174 | 1.7 | 12.2 | 0.00 | 0.00 | 0.00 | 72 | 1007.7 |
| 20260505210029 | 84 | 0 | 0.9 | 12.2 | 0.00 | 0.00 | 0.00 | 72 | 1007.8 |
| 20260505205511 | 85 | 189 | 2.6 | 12.2 | 0.00 | 0.00 | 0.00 | 73 | 1007.8 |
| 20260505205009 | 85 | 0 | 2.6 | 9.6 | 0.00 | 0.00 | 0.00 | 72 | 1007.9 |
| 20260505204533 | 85 | 195 | 2.6 | 9.6 | 0.00 | 0.00 | 0.00 | 71 | 1007.9 |
| 20260505204009 | 85 | 0 | 0.9 | 8.7 | 0.00 | 0.00 | 0.00 | 73 | 1007.9 |
| 20260505203510 | 84 | 242 | 4.3 | 10.4 | 0.00 | 0.00 | 0.00 | 71 | 1008.1 |
| 20260505203034 | 84 | 0 | 2.6 | 10.4 | 0.00 | 0.00 | 0.00 | 72 | 1008.2 |
| 20260505202514 | 84 | 225 | 2.6 | 10.4 | 0.00 | 0.00 | 0.00 | 71 | 1008.1 |
| 20260505202012 | 84 | 94 | 3.5 | 10.4 | 0.00 | 0.00 | 0.00 | 71 | 1008.2 |
| 20260505201533 | 84 | 295 | 3.5 | 10.4 | 0.00 | 0.00 | 0.00 | 73 | 1008.2 |
| 20260505201013 | 84 | 212 | 2.6 | 9.6 | 0.00 | 0.00 | 0.00 | 73 | 1008.3 |
| 20260505200511 | 84 | 209 | 1.7 | 9.6 | 0.00 | 0.00 | 0.00 | 72 | 1008.5 |
| 20260505200032 | 84 | 152 | 2.6 | 12.2 | 0.00 | 0.00 | 0.00 | 72 | 1008.3 |
| 20260505195516 | 84 | 124 | 2.6 | 12.2 | 0.00 | 0.00 | 0.00 | 72 | 1008.6 |
| 20260505195012 | 84 | 144 | 3.5 | 16.5 | 0.00 | 0.00 | 0.00 | 72 | 1008.6 |
| 20260505194528 | 84 | 227 | 2.6 | 16.5 | 0.00 | 0.00 | 0.00 | 73 | 1008.8 |
| 20260505194012 | 84 | 195 | 3.5 | 16.5 | 0.00 | 0.00 | 0.00 | 72 | 1008.8 |
| 20260505193511 | 83 | 134 | 2.6 | 13.0 | 0.00 | 0.00 | 0.00 | 74 | 1008.8 |
| 20260505193028 | 83 | 124 | 2.6 | 16.5 | 0.00 | 0.00 | 0.00 | 74 | 1008.9 |
| 20260505192511 | 83 | 149 | 1.7 | 16.5 | 0.00 | 0.00 | 0.00 | 75 | 1008.8 |
| 20260505192011 | 83 | 151 | 4.3 | 16.5 | 0.00 | 0.00 | 0.00 | 75 | 1008.7 |
| 20260505191529 | 83 | 179 | 0.0 | 8.7 | 0.00 | 0.00 | 0.00 | 75 | 1008.9 |
| 20260505191013 | 82 | 0 | 1.7 | 8.7 | 0.00 | 0.00 | 0.00 | 75 | 1008.9 |
| 20260505190512 | 82 | 338 | 0.9 | 10.4 | 0.00 | 0.00 | 0.00 | 76 | 1009.0 |
| 20260505190039 | 82 | 202 | 2.6 | 10.4 | 0.00 | 0.00 | 0.00 | 76 | 1008.9 |
| 20260505185516 | 82 | 0 | 2.6 | 11.3 | 0.00 | 0.00 | 0.00 | 77 | 1008.8 |
| 20260505185015 | 81 | 184 | 1.7 | 11.3 | 0.00 | 0.00 | 0.00 | 79 | 1009.0 |
| 20260505184531 | 81 | 194 | 0.9 | 8.7 | 0.00 | 0.00 | 0.00 | 79 | 1009.1 |
| 20260505184013 | 81 | 0 | 2.6 | 9.6 | 0.00 | 0.00 | 0.00 | 79 | 1009.1 |
| 20260505183510 | 80 | 264 | 2.6 | 11.3 | 0.00 | 0.00 | 0.00 | 80 | 1009.2 |
| 20260505183030 | 80 | 148 | 2.6 | 11.3 | 0.00 | 0.00 | 0.00 | 81 | 1009.3 |
| 20260505182510 | 80 | 0 | 0.0 | 10.4 | 0.00 | 0.00 | 0.00 | 81 | 1009.2 |
| 20260505182013 | 79 | 138 | 2.6 | 10.4 | 0.00 | 0.00 | 0.00 | 81 | 1009.2 |
| 20260505181532 | 79 | 221 | 1.7 | 5.2 | 0.00 | 0.00 | 0.00 | 81 | 1009.3 |
| 20260505181011 | 79 | 248 | 0.9 | 9.6 | 0.00 | 0.00 | 0.00 | 81 | 1009.4 |
| 20260505180513 | 79 | 0 | 2.6 | 9.6 | 0.00 | 0.00 | 0.00 | 82 | 1009.4 |
| 20260505180037 | 79 | 0 | 0.9 | 9.6 | 0.00 | 0.00 | 0.00 | 81 | 1009.4 |
| 20260505175514 | 79 | 259 | 2.6 | 9.6 | 0.00 | 0.00 | 0.00 | 81 | 1009.5 |
| 20260505175013 | 79 | 302 | 1.7 | 7.8 | 0.00 | 0.00 | 0.00 | 82 | 1009.5 |
| 20260505174529 | 79 | 258 | 1.7 | 7.0 | 0.00 | 0.00 | 0.00 | 82 | 1009.5 |
| 20260505174013 | 79 | 232 | 0.9 | 9.6 | 0.00 | 0.00 | 0.00 | 82 | 1009.5 |
| 20260505173509 | 79 | 135 | 1.7 | 9.6 | 0.00 | 0.00 | 0.00 | 81 | 1009.6 |
| 20260505173029 | 79 | 169 | 0.9 | 7.8 | 0.00 | 0.00 | 0.00 | 82 | 1009.6 |
| 20260505172511 | 79 | 191 | 1.7 | 7.8 | 0.00 | 0.00 | 0.00 | 82 | 1009.6 |
| 20260505172011 | 79 | 186 | 0.9 | 10.4 | 0.00 | 0.00 | 0.00 | 82 | 1009.6 |
| 20260505171528 | 79 | 0 | 1.7 | 10.4 | 0.00 | 0.00 | 0.00 | 82 | 1009.7 |
| 20260505171013 | 79 | 150 | 1.7 | 10.4 | 0.00 | 0.00 | 0.00 | 83 | 1009.6 |
| 20260505170514 | 78 | 210 | 1.7 | 8.7 | 0.00 | 0.00 | 0.00 | 83 | 1009.7 |
| 20260505170027 | 78 | 0 | 0.9 | 8.7 | 0.00 | 0.00 | 0.00 | 84 | 1009.7 |
| 20260505165512 | 78 | 309 | 0.9 | 7.0 | 0.00 | 0.00 | 0.00 | 84 | 1009.8 |
| 20260505165012 | 78 | 195 | 0.9 | 7.0 | 0.00 | 0.00 | 0.00 | 84 | 1009.8 |
| 20260505164536 | 78 | 0 | 0.9 | 6.1 | 0.00 | 0.00 | 0.00 | 84 | 1009.9 |
| 20260505164011 | 78 | 0 | 0.0 | 7.0 | 0.00 | 0.00 | 0.00 | 84 | 1009.9 |
| 20260505163512 | 77 | 0 | 1.7 | 7.0 | 0.00 | 0.00 | 0.00 | 84 | 1009.9 |
| 20260505163034 | 77 | 174 | 1.7 | 6.1 | 0.00 | 0.00 | 0.00 | 84 | 1010.0 |
| 20260505162512 | 77 | 210 | 2.6 | 6.1 | 0.00 | 0.00 | 0.00 | 84 | 1009.9 |
| 20260505162014 | 77 | 293 | 1.7 | 6.1 | 0.00 | 0.00 | 0.00 | 84 | 1009.9 |
| 20260505161528 | 77 | 206 | 0.9 | 5.2 | 0.00 | 0.00 | 0.00 | 85 | 1009.8 |
| 20260505161011 | 77 | 0 | 0.0 | 8.7 | 0.00 | 0.00 | 0.00 | 85 | 1009.8 |
| 20260505160512 | 76 | 167 | 1.7 | 8.7 | 0.00 | 0.00 | 0.00 | 85 | 1009.7 |
| 20260505153034 | 76 | 240 | 1.7 | 11.3 | 0.00 | 0.00 | 0.00 | 84 | 1009.5 |
| 20260505152512 | 76 | 0 | 0.9 | 7.0 | 0.00 | 0.00 | 0.00 | 84 | 1009.5 |
| 20260505152013 | 76 | 170 | 1.7 | 9.6 | 0.00 | 0.00 | 0.00 | 84 | 1009.5 |
| 20260505151530 | 76 | 0 | 2.6 | 15.6 | 0.00 | 0.00 | 0.00 | 84 | 1009.6 |
| 20260505151013 | 76 | 236 | 4.3 | 15.6 | 0.00 | 0.00 | 0.00 | 84 | 1009.4 |
| 20260505150511 | 76 | 138 | 3.5 | 12.2 | 0.00 | 0.00 | 0.00 | 84 | 1009.5 |
| 20260505140510 | 74 | 149 | 2.6 | 7.8 | 0.00 | 0.00 | 0.00 | 89 | 1009.3 |
| 20260505125011 | 71 | 122 | 0.9 | 5.2 | 0.00 | 0.00 | 0.00 | 91 | 1009.3 |
| 20260505124529 | 71 | 217 | 0.9 | 5.2 | 0.00 | 0.00 | 0.00 | 91 | 1009.0 |
| 20260505124013 | 71 | 174 | 0.9 | 5.2 | 0.00 | 0.00 | 0.00 | 91 | 1008.8 |
| 20260505123509 | 71 | 85 | 0.0 | 4.3 | 0.00 | 0.00 | 0.00 | 91 | 1008.7 |
| 20260505123035 | 71 | 107 | 0.9 | 4.3 | 0.00 | 0.00 | 0.00 | 91 | 1008.8 |
| 20260505122510 | 71 | 133 | 0.9 | 3.5 | 0.00 | 0.00 | 0.00 | 91 | 1009.1 |
| 20260505122014 | 70 | 129 | 0.9 | 2.6 | 0.00 | 0.00 | 0.00 | 91 | 1009.1 |
| 20260505121532 | 70 | 0 | 0.0 | 2.6 | 0.00 | 0.00 | 0.00 | 91 | 1009.1 |
| 20260505121013 | 70 | 0 | 0.0 | 2.6 | 0.00 | 0.00 | 0.00 | 90 | 1009.2 |
| 20260505120512 | 70 | 147 | 0.0 | 4.3 | 0.00 | 0.00 | 0.00 | 90 | 1008.9 |
| 20260505120039 | 70 | 0 | 0.0 | 6.1 | 0.00 | 0.00 | 0.00 | 90 | 1008.9 |
| 20260505115512 | 70 | 103 | 0.9 | 6.1 | 0.00 | 0.00 | 0.00 | 90 | 1008.9 |
| 20260505115009 | 70 | 0 | 0.0 | 4.3 | 0.00 | 0.00 | 0.00 | 90 | 1008.8 |
| 20260505114527 | 70 | 185 | 0.9 | 4.3 | 0.00 | 0.00 | 0.00 | 90 | 1008.6 |
| 20260505114012 | 70 | 148 | 0.0 | 2.6 | 0.00 | 0.00 | 0.00 | 90 | 1008.5 |
| 20260505113511 | 70 | 0 | 0.0 | 4.3 | 0.00 | 0.00 | 0.00 | 90 | 1008.7 |
| 20260505113029 | 70 | 177 | 0.9 | 4.3 | 0.00 | 0.00 | 0.00 | 90 | 1009.0 |
| 20260505112511 | 70 | 0 | 0.0 | 4.3 | 0.00 | 0.00 | 0.00 | 90 | 1008.9 |
| 20260505112011 | 70 | 0 | 0.9 | 6.1 | 0.00 | 0.00 | 0.00 | 90 | 1008.9 |
| 20260505111532 | 70 | 139 | 0.0 | 6.1 | 0.00 | 0.00 | 0.00 | 90 | 1009.0 |
| 20260505111011 | 70 | 224 | 0.9 | 6.1 | 0.00 | 0.00 | 0.00 | 90 | 1008.8 |
| 20260505110511 | 70 | 0 | 0.9 | 5.2 | 0.00 | 0.00 | 0.00 | 90 | 1008.9 |
| 20260505101014 | 70 | 146 | 0.0 | 5.2 | 0.00 | 0.00 | 0.00 | 89 | 1008.7 |
| 20260505100511 | 70 | 146 | 0.9 | 5.2 | 0.00 | 0.00 | 0.00 | 89 | 1008.8 |
| 20260505095511 | 70 | 238 | 0.0 | 2.6 | 0.00 | 0.00 | 0.00 | 89 | 1008.9 |
| 20260505095012 | 70 | 230 | 0.0 | 5.2 | 0.00 | 0.00 | 0.00 | 89 | 1009.0 |
| 20260505094531 | 70 | 0 | 0.0 | 5.2 | 0.00 | 0.00 | 0.00 | 89 | 1008.9 |
| 20260505094012 | 70 | 0 | 0.0 | 6.1 | 0.00 | 0.00 | 0.00 | 89 | 1008.9 |
| 20260505093512 | 70 | 155 | 0.9 | 6.1 | 0.00 | 0.00 | 0.00 | 89 | 1008.9 |
| 20260505093031 | 70 | 136 | 0.9 | 6.1 | 0.00 | 0.00 | 0.00 | 89 | 1008.9 |
| 20260505092510 | 70 | 0 | 0.0 | 4.3 | 0.00 | 0.00 | 0.00 | 89 | 1008.9 |
| 20260505092014 | 70 | 0 | 0.0 | 4.3 | 0.00 | 0.00 | 0.00 | 89 | 1009.0 |
| 20260505091532 | 70 | 169 | 0.0 | 4.3 | 0.00 | 0.00 | 0.00 | 88 | 1009.1 |
| 20260505091011 | 70 | 0 | 0.9 | 5.2 | 0.00 | 0.00 | 0.00 | 88 | 1009.1 |
| 20260505090509 | 70 | 0 | 0.0 | 5.2 | 0.00 | 0.00 | 0.00 | 88 | 1009.2 |
| 20260505090027 | 70 | 0 | 0.9 | 3.5 | 0.00 | 0.00 | 0.00 | 88 | 1009.2 |
| 20260505085511 | 70 | 126 | 0.9 | 5.2 | 0.00 | 0.00 | 0.00 | 88 | 1009.2 |
| 20260505085009 | 70 | 184 | 0.9 | 5.2 | 0.00 | 0.00 | 0.00 | 88 | 1009.2 |
| 20260505084543 | 70 | 141 | 0.0 | 3.5 | 0.00 | 0.00 | 0.00 | 88 | 1009.3 |
| 20260505084012 | 70 | 160 | 0.0 | 3.5 | 0.00 | 0.00 | 0.00 | 88 | 1009.1 |
| 20260505083511 | 70 | 0 | 0.9 | 4.3 | 0.00 | 0.00 | 0.00 | 88 | 1009.2 |
| 20260505083046 | 70 | 0 | 0.9 | 5.2 | 0.00 | 0.00 | 0.00 | 88 | 1009.2 |
| 20260505082510 | 70 | 101 | 0.0 | 5.2 | 0.00 | 0.00 | 0.00 | 88 | 1009.4 |
| 20260505082013 | 70 | 150 | 0.9 | 5.2 | 0.00 | 0.00 | 0.00 | 87 | 1009.4 |
| 20260505081541 | 70 | 167 | 0.9 | 4.3 | 0.00 | 0.00 | 0.00 | 87 | 1009.4 |
| 20260505081014 | 70 | 215 | 0.9 | 4.3 | 0.00 | 0.00 | 0.00 | 87 | 1009.5 |
| 20260505080512 | 70 | 140 | 0.0 | 4.3 | 0.00 | 0.00 | 0.00 | 87 | 1009.4 |
| 20260505080039 | 70 | 97 | 0.0 | 3.5 | 0.00 | 0.00 | 0.00 | 87 | 1009.5 |
| 20260505075514 | 70 | 0 | 0.9 | 3.5 | 0.00 | 0.00 | 0.00 | 87 | 1009.6 |
| 20260505075011 | 70 | 198 | 0.0 | 3.5 | 0.00 | 0.00 | 0.00 | 86 | 1009.6 |
| 20260505074527 | 70 | 0 | 0.9 | 3.5 | 0.00 | 0.00 | 0.00 | 86 | 1009.6 |
| 20260505074012 | 70 | 0 | 0.0 | 3.5 | 0.00 | 0.00 | 0.00 | 86 | 1009.6 |
| 20260505073512 | 70 | 0 | 0.9 | 3.5 | 0.00 | 0.00 | 0.00 | 86 | 1009.7 |
| 20260505073036 | 70 | 0 | 0.0 | 2.6 | 0.00 | 0.00 | 0.00 | 86 | 1009.7 |
| 20260505072513 | 70 | 0 | 0.0 | 2.6 | 0.00 | 0.00 | 0.00 | 86 | 1009.7 |
| 20260505072011 | 70 | 0 | 0.0 | 2.6 | 0.00 | 0.00 | 0.00 | 85 | 1009.8 |
| 20260505071541 | 70 | 0 | 0.0 | 3.5 | 0.00 | 0.00 | 0.00 | 85 | 1009.9 |
| 20260505071009 | 70 | 160 | 0.9 | 5.2 | 0.00 | 0.00 | 0.00 | 85 | 1010.0 |
| 20260505070515 | 70 | 136 | 0.0 | 5.2 | 0.00 | 0.00 | 0.00 | 85 | 1010.0 |
| 20260505070039 | 70 | 167 | 0.9 | 5.2 | 0.00 | 0.00 | 0.00 | 85 | 1009.9 |
| 20260505065511 | 70 | 189 | 0.9 | 5.2 | 0.00 | 0.00 | 0.00 | 85 | 1010.0 |
| 20260505065011 | 70 | 0 | 0.9 | 5.2 | 0.00 | 0.00 | 0.00 | 85 | 1010.1 |
| 20260505064528 | 70 | 0 | 0.9 | 5.2 | 0.00 | 0.00 | 0.00 | 85 | 1010.2 |
| 20260505064011 | 70 | 169 | 1.7 | 5.2 | 0.00 | 0.00 | 0.00 | 85 | 1010.1 |
| 20260505063513 | 70 | 0 | 0.0 | 5.2 | 0.00 | 0.00 | 0.00 | 85 | 1010.1 |
| 20260505063037 | 70 | 0 | 0.9 | 5.2 | 0.00 | 0.00 | 0.00 | 84 | 1010.2 |
| 20260505062509 | 70 | 0 | 0.0 | 6.1 | 0.00 | 0.00 | 0.00 | 84 | 1010.4 |
| 20260505062013 | 70 | 148 | 0.0 | 6.1 | 0.00 | 0.00 | 0.00 | 84 | 1010.4 |
| 20260505061530 | 70 | 0 | 0.0 | 6.1 | 0.00 | 0.00 | 0.00 | 84 | 1010.2 |
| 20260505061010 | 70 | 0 | 1.7 | 6.1 | 0.00 | 0.00 | 0.00 | 84 | 1010.3 |
| 20260505060514 | 70 | 161 | 0.9 | 8.7 | 0.00 | 0.00 | 0.00 | 84 | 1010.4 |
| 20260505060050 | 70 | 183 | 0.9 | 8.7 | 0.00 | 0.00 | 0.00 | 83 | 1010.4 |
| 20260505055512 | 70 | 150 | 0.9 | 4.3 | 0.00 | 0.00 | 0.00 | 83 | 1010.4 |
| 20260505055014 | 70 | 205 | 0.9 | 5.2 | 0.00 | 0.00 | 0.00 | 83 | 1010.4 |
| 20260505054526 | 70 | 0 | 0.9 | 6.1 | 0.00 | 0.00 | 0.00 | 83 | 1010.5 |
| 20260505054017 | 70 | 0 | 0.0 | 6.1 | 0.00 | 0.00 | 0.00 | 82 | 1010.5 |
| 20260505053512 | 70 | 163 | 0.0 | 2.6 | 0.00 | 0.00 | 0.00 | 82 | 1010.6 |
| 20260505053027 | 70 | 0 | 0.0 | 2.6 | 0.00 | 0.00 | 0.00 | 82 | 1010.8 |
| 20260505052512 | 70 | 0 | 0.0 | 5.2 | 0.00 | 0.00 | 0.00 | 81 | 1010.7 |
| 20260505052012 | 71 | 0 | 0.0 | 5.2 | 0.00 | 0.00 | 0.00 | 81 | 1010.8 |
| 20260505051528 | 71 | 178 | 0.0 | 7.0 | 0.00 | 0.00 | 0.00 | 81 | 1010.8 |
| 20260505051010 | 71 | 290 | 0.0 | 7.0 | 0.00 | 0.00 | 0.00 | 81 | 1010.9 |
| 20260505050510 | 71 | 159 | 1.7 | 7.0 | 0.00 | 0.00 | 0.00 | 81 | 1010.8 |
| 20260505041537 | 72 | 233 | 0.9 | 9.6 | 0.00 | 0.00 | 0.00 | 79 | 1010.8 |
| 20260505041012 | 72 | 176 | 0.9 | 9.6 | 0.00 | 0.00 | 0.00 | 78 | 1010.8 |
| 20260505040513 | 72 | 216 | 1.7 | 7.8 | 0.00 | 0.00 | 0.00 | 78 | 1010.8 |
| 20260505040033 | 72 | 176 | 1.7 | 11.3 | 0.00 | 0.00 | 0.00 | 78 | 1010.8 |
| 20260505035509 | 72 | 202 | 0.9 | 11.3 | 0.00 | 0.00 | 0.00 | 77 | 1010.9 |
| 20260505035011 | 72 | 166 | 1.7 | 7.0 | 0.00 | 0.00 | 0.00 | 77 | 1011.0 |
| 20260505034529 | 72 | 77 | 2.6 | 7.0 | 0.00 | 0.00 | 0.00 | 77 | 1010.9 |
| 20260505034015 | 72 | 169 | 1.7 | 7.0 | 0.00 | 0.00 | 0.00 | 77 | 1010.9 |
| 20260505033513 | 72 | 60 | 0.9 | 9.6 | 0.00 | 0.00 | 0.00 | 77 | 1011.0 |
| 20260505033027 | 72 | 150 | 0.9 | 9.6 | 0.00 | 0.00 | 0.00 | 77 | 1011.0 |
| 20260505032511 | 73 | 0 | 0.9 | 8.7 | 0.00 | 0.00 | 0.00 | 76 | 1011.2 |
| 20260505032014 | 73 | 143 | 1.7 | 7.8 | 0.00 | 0.00 | 0.00 | 76 | 1011.2 |
| 20260505031526 | 73 | 0 | 0.9 | 6.1 | 0.00 | 0.00 | 0.00 | 75 | 1011.1 |
| 20260505031010 | 73 | 192 | 0.9 | 7.8 | 0.00 | 0.00 | 0.00 | 75 | 1011.1 |
| 20260505030509 | 73 | 228 | 0.9 | 8.7 | 0.00 | 0.00 | 0.00 | 76 | 1011.0 |
| 20260505030028 | 73 | 77 | 0.0 | 8.7 | 0.00 | 0.00 | 0.00 | 75 | 1011.1 |
| 20260505025518 | 73 | 163 | 1.7 | 7.8 | 0.00 | 0.00 | 0.00 | 75 | 1011.1 |
| 20260505025012 | 73 | 149 | 0.9 | 7.0 | 0.00 | 0.00 | 0.00 | 74 | 1010.9 |
| 20260505024527 | 74 | 178 | 1.7 | 7.8 | 0.00 | 0.00 | 0.00 | 74 | 1010.8 |
| 20260505024015 | 74 | 0 | 0.9 | 8.7 | 0.00 | 0.00 | 0.00 | 74 | 1010.7 |
| 20260505023512 | 74 | 96 | 1.7 | 8.7 | 0.00 | 0.00 | 0.00 | 74 | 1010.8 |
| 20260505023027 | 74 | 118 | 1.7 | 8.7 | 0.00 | 0.00 | 0.00 | 74 | 1010.8 |
| 20260505022510 | 74 | 179 | 1.7 | 8.7 | 0.00 | 0.00 | 0.00 | 74 | 1010.9 |
| 20260505022012 | 74 | 153 | 1.7 | 9.6 | 0.00 | 0.00 | 0.00 | 74 | 1010.9 |
| 20260505021530 | 74 | 93 | 1.7 | 9.6 | 0.00 | 0.00 | 0.00 | 74 | 1010.9 |
| 20260505021015 | 74 | 0 | 2.6 | 9.6 | 0.00 | 0.00 | 0.00 | 74 | 1010.9 |
| 20260505020513 | 74 | 0 | 1.7 | 7.8 | 0.00 | 0.00 | 0.00 | 74 | 1010.8 |
| 20260505020035 | 74 | 188 | 1.7 | 7.8 | 0.00 | 0.00 | 0.00 | 74 | 1010.8 |
| 20260505015514 | 74 | 189 | 0.9 | 10.4 | 0.00 | 0.00 | 0.00 | 74 | 1010.6 |
| 20260505015014 | 74 | 0 | 1.7 | 10.4 | 0.00 | 0.00 | 0.00 | 74 | 1010.7 |
| 20260505014538 | 74 | 115 | 1.7 | 7.0 | 0.00 | 0.00 | 0.00 | 74 | 1010.6 |
| 20260505014012 | 74 | 0 | 0.9 | 7.0 | 0.00 | 0.00 | 0.00 | 74 | 1010.6 |
| 20260505013513 | 74 | 115 | 1.7 | 7.0 | 0.00 | 0.00 | 0.00 | 73 | 1010.6 |
| 20260505013037 | 74 | 126 | 0.0 | 4.3 | 0.00 | 0.00 | 0.00 | 72 | 1010.4 |
| 20260505012514 | 75 | 0 | 0.0 | 6.1 | 0.00 | 0.00 | 0.00 | 72 | 1010.4 |
| 20260505012011 | 75 | 0 | 0.9 | 11.3 | 0.00 | 0.00 | 0.00 | 71 | 1010.3 |
| 20260505011535 | 75 | 162 | 1.7 | 11.3 | 0.00 | 0.00 | 0.00 | 71 | 1010.2 |
| 20260505011015 | 75 | 127 | 0.9 | 8.7 | 0.00 | 0.00 | 0.00 | 70 | 1010.3 |
| 20260505010513 | 76 | 148 | 0.0 | 2.6 | 0.00 | 0.00 | 0.00 | 70 | 1010.4 |
| 20260505010030 | 76 | 150 | 0.0 | 6.1 | 0.00 | 0.00 | 0.00 | 70 | 1010.4 |
| 20260505005514 | 76 | 170 | 0.9 | 6.1 | 0.00 | 0.00 | 0.00 | 69 | 1010.4 |
| 20260505005012 | 76 | 0 | 0.0 | 5.2 | 0.00 | 0.00 | 0.00 | 69 | 1010.4 |
| 20260505004540 | 77 | 94 | 0.0 | 5.2 | 0.00 | 0.00 | 0.00 | 68 | 1010.3 |
| 20260505004015 | 77 | 203 | 0.9 | 5.2 | 0.00 | 0.00 | 0.00 | 68 | 1010.3 |
| 20260505003513 | 77 | 130 | 0.9 | 5.2 | 0.00 | 0.00 | 0.00 | 68 | 1010.2 |
| 20260505003048 | 77 | 0 | 0.0 | 5.2 | 0.00 | 0.00 | 0.00 | 68 | 1010.2 |
| 20260505002513 | 77 | 199 | 1.7 | 5.2 | 0.00 | 0.00 | 0.00 | 67 | 1010.3 |
| 20260505002012 | 77 | 175 | 0.0 | 9.6 | 0.00 | 0.00 | 0.00 | 67 | 1010.4 |
| 20260505001530 | 77 | 192 | 0.9 | 9.6 | 0.00 | 0.00 | 0.00 | 66 | 1010.3 |
| 20260505001010 | 78 | 169 | 1.7 | 9.6 | 0.00 | 0.00 | 0.00 | 66 | 1010.3 |
| 20260505000514 | 78 | 158 | 0.0 | 9.6 | 0.00 | 0.00 | 0.00 | 66 | 1010.3 |
| 20260505000034 | 78 | 174 | 1.7 | 9.6 | 0.00 | 0.00 | 0.00 | 66 | 1010.4 |
| 20260504235513 | 78 | 0 | 1.7 | 6.1 | 0.00 | 0.00 | 0.00 | 66 | 1010.4 |
| 20260504235012 | 78 | 185 | 0.0 | 5.2 | 0.00 | 0.00 | 0.00 | 65 | 1010.6 |
| 20260504234530 | 78 | 0 | 0.9 | 6.1 | 0.00 | 0.00 | 0.00 | 65 | 1010.5 |
| 20260504234016 | 79 | 181 | 2.6 | 6.1 | 0.00 | 0.00 | 0.00 | 65 | 1010.5 |
| 20260504233513 | 79 | 0 | 0.9 | 7.8 | 0.00 | 0.00 | 0.00 | 65 | 1010.4 |
| 20260504233029 | 79 | 182 | 1.7 | 7.8 | 0.00 | 0.00 | 0.00 | 64 | 1010.5 |
| 20260504232515 | 79 | 0 | 1.7 | 7.8 | 0.00 | 0.00 | 0.00 | 63 | 1010.5 |
| 20260504232010 | 79 | 115 | 2.6 | 7.8 | 0.00 | 0.00 | 0.00 | 63 | 1010.6 |
| 20260504231530 | 79 | 345 | 0.9 | 6.1 | 0.00 | 0.00 | 0.00 | 64 | 1010.6 |
| 20260504231014 | 79 | 0 | 0.9 | 12.2 | 0.00 | 0.00 | 0.00 | 64 | 1010.5 |
| 20260504230514 | 80 | 163 | 1.7 | 12.2 | 0.00 | 0.00 | 0.00 | 62 | 1010.8 |
| 20260504230027 | 80 | 249 | 0.9 | 10.4 | 0.00 | 0.00 | 0.00 | 62 | 1010.9 |
| 20260504225512 | 80 | 189 | 3.5 | 10.4 | 0.00 | 0.00 | 0.00 | 60 | 1010.8 |
| 20260504225011 | 80 | 203 | 2.6 | 8.7 | 0.00 | 0.00 | 0.00 | 61 | 1010.8 |
| 20260504224528 | 80 | 0 | 0.0 | 5.2 | 0.00 | 0.00 | 0.00 | 64 | 1010.9 |